Regional Weather Roundup
Issued by NWS New Orleans/Baton Rouge, LA

Home | Current Version | Previous Version | Text Only | Print | Product List | Glossary On
Versions: 1 2 3 4 5 6 7 8 9 10 11 12 13 14 15 16 17 18 19 20 21 22 23 24 25 26 27 28 29 30 31 32 33 34 35 36 37 38 39 40 41 42 43 44 45 46 47 48 49 50
000
ASUS44 KLIX 210010
RWRLIX
NEW ORLEANS REGIONAL WEATHER ROUNDUP
NATIONAL WEATHER SERVICE NEW ORLEANS LA
700 PM CDT WED AUG 20 2014

NOTE: "FAIR" INDICATES FEW OR NO CLOUDS BELOW 12,000 FEET WITH NO
      SIGNIFICANT WEATHER AND/OR OBSTRUCTIONS TO VISIBILITY.
      SKY/WX - SKY CONDITION AND SIGNIFICANT WEATHER.
      TMP - AIR TEMPERATURE.     DP    - DEWPOINT TEMPERATURE.
      RH  - RELATIVE HUMIDITY.   PRES  - PRESSURE.
      HI  - HEAT INDEX.          WCI   - WIND CHILL INDEX.

*  THESE STATIONS ARE NOT NWS OR FAA STATIONS AND ARE NOT UNDER
   NWS QUALITY CONTROL.

LAZ038-040-048-061>063-065>067-069-210100-
SOUTHEAST LOUISIANA

CITY           SKY/WX    TMP DP  RH WIND       PRES   REMARKS
N.O. AUDUBON     N/A    N/A N/A N/A MISG        N/A
6HR MIN TEMP:  79;

N.O. INTL ARPT CLOUDY    82  73  74 SW6       30.05S
6HR MIN TEMP:  82; 6HR MAX TEMP:  92; 6HR PCP: TRACE;

N.O. LAKEFRONT CLOUDY    85  74  69 S8        30.05F
6HR MIN TEMP:  78; 6HR MAX TEMP:  91; 6HR PCP:  0.22;

N.O. DOWNTOWN*   N/A     86  72  62 S3        30.06S
6HR MIN TEMP:  82; 6HR MAX TEMP:  97; 6HR PCP:  0.01;

SLIDELL        MOCLDY    87  73  62 S6        30.05R
6HR MIN TEMP:  86; 6HR MAX TEMP:  94;

BATON ROUGE    CLOUDY    80  74  81 CALM      30.05S
6HR MIN TEMP:  80; 6HR MAX TEMP:  94; 6HR PCP:  0.10;

BOOTHVILLE     PTCLDY    86  76  71 SW8       30.07R HX  96
6HR MIN TEMP:  86; 6HR MAX TEMP:  91;

BELLE CHASSE   CLOUDY    84  76  76 CALM      30.05S
6HR MIN TEMP:  83; 6HR MAX TEMP:  92;

BOGALUSA*        N/A     87  74  67 SW8       30.06R HX  95
6HR MIN TEMP:  87; 6HR MAX TEMP:  96;

GALLIANO*      NOT AVBL
NEW ROADS*       N/A     77  74  91 CALM      30.05F
6HR MIN TEMP:  77; 6HR MAX TEMP:  92;

GONZALES*        N/A     76  76 100 CALM      30.03F
6HR MIN TEMP:  75; 6HR MAX TEMP:  92; 6HR PCP:  0.03;

HAMMOND*       CLOUDY    82  72  69 CALM      30.06F
HOUMA*         NOT AVBL
PORT FOURCHON* CLEAR     86  75  70 S9        30.07S HX  95

$$

MSZ070-080>082-210100-
SOUTHERN MISSISSIPPI

CITY           SKY/WX    TMP DP  RH WIND       PRES   REMARKS
MCCOMB         MOCLDY    83  73  72 S6        30.05S
6HR MIN TEMP:  83; 6HR MAX TEMP:  94;

GULFPORT       PTCLDY    87  76  69 S7        30.04S HX  97
6HR MIN TEMP:  87; 6HR MAX TEMP:  92;

BILOXI         MOCLDY    87  76  70 SW12      30.05S HX  97
6HR MIN TEMP:  87; 6HR MAX TEMP:  92;

PASCAGOULA     PTCLDY    85  75  72 SW6       30.05R
6HR MIN TEMP:  85; 6HR MAX TEMP:  92;

STENNIS ARPT*  PTCLDY   N/A N/A N/A SW5       30.05S

$$

COASTAL OBSERVATIONS
LAKE AND NEARSHORE STATIONS

STATION/POSITION TIME  TEMP    WIND        PRES    WAVE
                       AIR SEA DIR/SP/G            HT/PER
                 (UTC) (F)     (DEG/KT/KT) (MB)    (FT/S)
PASCAGOULA       0000   87     210/ 12/ 14 1017.3
WAVELAND YACHT   0000   86     200/  6/ 10 1017.0
GRAND ISLE       0000   86 89  200/  7/ 10 1018.7
SOUTHWEST PASS   0000   86 90  210/  5/  7 1018.5
NEW CANAL        0000   85 85  210/  4/  6 1018.1
SHELL BEACH      0000   86 83  180/  5/  7 1017.6

OFFSHORE STATIONS

STATION/POSITION TIME  TEMP    WIND        PRES    WAVE
                       AIR SEA DIR/SP/G            HT/PER
                 (UTC) (F)     (DEG/KT/KT) (MB)    (FT/S)

$$




USA.gov is the U.S. government's official web portal to all federal, state and local government web resources and services.